Regional Weather Roundup
Issued by NWS

Home | Current Version | Previous Version | Graphics & Text | Print | Product List | Glossary On
Versions: 1 2 3 4 5 6 7 8 9 10 11 12 13 14 15 16 17 18 19 20 21 22 23 24 25 26 27 28 29 30 31 32 33 34 35 36 37 38 39 40 41 42 43 44 45 46 47 48 49 50
000
ASUS43 KIND 210209
RWRIN

WEATHER ROUNDUP FOR INDIANA
NATIONAL WEATHER SERVICE INDIANAPOLIS IN
1000 PM EDT WED AUG 20 2014

NOTE: "FAIR" INDICATES FEW OR NO CLOUDS BELOW 12,000 FEET WITH NO
SIGNIFICANT WEATHER AND/OR OBSTRUCTIONS TO VISIBILITY.

* - STATION DOES NOT REPORT WEATHER SUCH AS PRECIPITATION OR FOG.

+ - STATION NOT QUALITY CONTROLLED BY THE NATIONAL WEATHER SERVICE.
    USE DATA WITH CAUTION...ESPECIALLY DEWPOINT AND RELATIVE
    HUMIDITY OBSERVATIONS.

INZ001>003-010>013-019-020-210300-
NORTHWEST INDIANA

CITY           SKY/WX    TMP DP  RH WIND       PRES   REMARKS
GARY /AIRPORT/ CLEAR     79  70  73 SW8       29.91R
KNOX *+        CLEAR     73  68  83 SW3       29.93R
LA PORTE +     PTCLDY    73  66  80 SW5       29.93R
MICHIGAN CITY+ PTCLDY    70  64  83 S3        29.92R
MONTICELLO +   PTCLDY    71  67  87 SW3       29.95R
RENSSELAER +   CLEAR     70  68  94 SW3       29.95R
VALPARAISO     PTCLDY    75  69  81 SW7       29.93R

$$

LMZ046-743>745-210300-
SOUTHERN LAKE MICHIGAN

STATION/POSITION TIME  TEMP WIND        PRES
                       AIR  DIR/SP/G
                 (UTC) (F)  (DEG/KT/KT) (MB)
MICHIGAN CITY    0200   78  170/  7/  8   N/A

$$

INZ004-005-014>016-021>024-210300-
NORTH CENTRAL INDIANA

CITY           SKY/WX    TMP DP  RH WIND       PRES   REMARKS
GOSHEN         PTCLDY    74  68  81 CALM      29.94R
LOGANSPORT +   CLEAR     68  64  88 SW3       29.97R
PERU/GRISSOM   CLEAR     71  71 100 SW7       29.96R
ROCHESTER +    CLEAR     77  70  78 SW5       29.96R
SOUTH BEND     PTCLDY    75  66  73 S3        29.93R
WARSAW +       PTCLDY    75  68  78 SW3       29.94R

$$

INZ006>009-017-018-025>027-210300-
NORTHEAST INDIANA

CITY           SKY/WX    TMP DP  RH WIND       PRES   REMARKS
ANGOLA *+      CLEAR     70  63  78 CALM      29.95R
AUBURN +       CLEAR     73  66  78 CALM      29.96R
FORT WAYNE     MOCLDY    71  65  81 S7        29.96R
HUNTINGTON +   MOCLDY    75  69  80 CALM      29.95R

$$

INZ028-029-035-036-043>045-051>053-210300-
WEST CENTRAL INDIANA

CITY           SKY/WX    TMP DP  RH WIND       PRES   REMARKS
GREENCASTLE +  PTCLDY    70  68  94 CALM      30.00R
LAFAYETTE      PTCLDY    71  67  87 CALM      29.95R
TERRE HAUTE    PTCLDY    72  69  90 S7        29.98S

$$

INZ030>032-037>040-046>048-054>057-064-065-210300-
CENTRAL INDIANA

CITY           SKY/WX    TMP DP  RH WIND       PRES   REMARKS
CP ATTERBURY + MOCLDY    72  68  88 CALM      30.01R
COLUMBUS       CLEAR     73  72  94 CALM      30.01R
FRANKFORT +    PTCLDY    70  70 100 S3        29.99R
GREENWOOD *+   MOCLDY    75  72  88 S6        30.01R
INDIANAPOLIS   MOCLDY    74  67  78 SW9       29.99R
-EAGLE CREEK   MOCLDY    74  66  76 SW5       29.99R
KOKOMO *+      CLEAR     72  64  78 SW3       29.97R
MARION +       CLEAR     69  64  84 S5        29.98R
MT COMFORT *+  MOCLDY    72  70  94 SW3       30.00R
SHELBYVILLE    MOCLDY    74  68  81 S8        29.99R
ZIONSVILLE +   PTCLDY    73  65  78 SW5       30.00R

$$

INZ033-034-041-042-049-050-058-059-210300-
EAST CENTRAL INDIANA

CITY           SKY/WX    TMP DP  RH WIND       PRES   REMARKS
MUNCIE         CLEAR     75  65  70 SW7       29.98R

$$

INZ060-061-067>069-081>083-085>088-210300-
SOUTHWEST INDIANA

CITY           SKY/WX    TMP DP  RH WIND       PRES   REMARKS
EVANSVILLE     PTCLDY    80  68  66 S8        30.02R
WASHINGTON +   CLEAR     71  71  99 S5        30.00R

$$

INZ062-063-066-070>080-084-089>092-210300-
SOUTH CENTRAL AND SOUTHEAST INDIANA

CITY           SKY/WX    TMP DP  RH WIND       PRES   REMARKS
BLOOMINGTON    PTCLDY    72  69  90 SE3       30.02R

$$



USA.gov is the U.S. government's official web portal to all federal, state and local government web resources and services.